E24CR-1 Weather Reports


time (UTC)temp
C
wind
direction
speed
KPH
gust
KPH
rain 1hr
cm
rain 24hr
cm
rain mn
cm
humidity
%
barometer
mb
20260505063023 34 0 0.0 0.0 0.00 0.00 0.00 46 952.0
20260505061956 33 0 0.0 0.0 0.00 0.00 0.00 47 952.0
20260505060931 35 0 0.0 0.0 0.00 0.00 0.00 45 952.0
20260505055907 33 0 0.0 0.0 0.00 0.00 0.00 49 953.0
20260505054842 32 0 0.0 0.0 0.00 0.00 0.00 52 953.0
20260505053811 30 0 0.0 0.0 0.00 0.00 0.00 58 953.0
20260505052745 31 0 0.0 0.0 0.00 0.00 0.00 57 954.0
20260505051721 31 0 0.0 0.0 0.00 0.00 0.00 56 954.0
20260505050657 30 0 0.0 0.0 0.00 0.00 0.00 58 954.0
20260505041444 32 0 0.0 0.0 0.00 0.00 0.00 55 954.0
20260505040420 33 0 0.0 0.0 0.00 0.00 0.00 53 954.0
20260505035356 31 0 0.0 0.0 0.00 0.00 0.00 55 955.0
20260505034332 31 0 0.0 0.0 0.00 0.00 0.00 56 955.0
20260505033308 30 0 0.0 0.0 0.00 0.00 0.00 60 955.0
20260505032244 30 0 0.0 0.0 0.00 0.00 0.00 63 955.0
20260505031219 29 0 0.0 0.0 0.00 0.00 0.00 64 955.0
20260505030156 28 0 0.0 0.0 0.00 0.00 0.00 66 955.0
20260505025131 28 0 0.0 0.0 0.00 0.00 0.00 67 955.0
20260505024107 28 0 0.0 0.0 0.00 0.00 0.00 67 955.0
20260505023043 28 0 0.0 0.0 0.00 0.00 0.00 68 955.0
20260505022019 29 0 0.0 0.0 0.00 0.00 0.00 66 955.0
20260505020955 29 0 0.0 0.0 0.00 0.00 0.00 69 955.0
20260505015931 29 0 0.0 0.0 0.00 0.00 0.00 67 955.0
20260505014907 30 0 0.0 0.0 0.00 0.00 0.00 66 955.0
20260505013843 30 0 0.0 0.0 0.00 0.00 0.00 67 955.0
20260505012818 28 0 0.0 0.0 0.00 0.00 0.00 72 955.0
20260505011754 28 0 0.0 0.0 0.00 0.00 0.00 74 955.0
20260505010730 27 0 0.0 0.0 0.00 0.00 0.00 75 955.0
20260505005706 26 0 0.0 0.0 0.00 0.00 0.00 79 955.0
20260505004641 26 0 0.0 0.0 0.00 0.00 0.00 80 954.0
20260505003617 26 0 0.0 0.0 0.00 0.00 0.00 81 954.0
20260505002553 26 0 0.0 0.0 0.00 0.00 0.00 83 954.0
20260505001528 26 0 0.0 0.0 0.00 0.00 0.00 84 954.0
20260505000449 25 0 0.0 0.0 0.00 0.00 0.00 82 954.0
20260504235424 25 0 0.0 0.0 0.00 0.00 0.00 82 954.0
20260504234400 25 0 0.0 0.0 0.00 0.00 0.00 79 954.0
20260504233336 25 0 0.0 0.0 0.00 0.00 0.00 79 954.0
20260504232312 25 0 0.0 0.0 0.00 0.00 0.00 81 954.0
20260504231248 25 0 0.0 0.0 0.00 0.00 0.00 82 953.0
20260504230224 24 0 0.0 0.0 0.00 0.00 0.00 84 953.0
20260504225202 24 0 0.0 0.0 0.00 0.00 0.00 86 953.0
20260504224136 24 0 0.0 0.0 0.00 0.00 0.00 84 953.0
20260504223111 24 0 0.0 0.0 0.00 0.00 0.00 82 953.0
20260504222037 25 0 0.0 0.0 0.00 0.00 0.00 79 952.0
20260504221013 25 0 0.0 0.0 0.00 0.00 0.00 78 953.0
20260504215949 25 0 0.0 0.0 0.00 0.00 0.00 78 953.0
20260504214925 25 0 0.0 0.0 0.00 0.00 0.00 75 952.0
20260504213900 25 0 0.0 0.0 0.00 0.00 0.00 78 952.0
20260504212836 25 0 0.0 0.0 0.00 0.00 0.00 79 952.0
20260504211812 24 0 0.0 0.0 0.00 0.00 0.00 81 952.0
20260504210748 24 0 0.0 0.0 0.00 0.00 0.00 84 953.0
20260504205724 24 0 0.0 0.0 0.00 0.00 0.00 79 953.0
20260504204659 25 0 0.0 0.0 0.00 0.00 0.00 74 952.0
20260504203635 25 0 0.0 0.0 0.00 0.00 0.00 79 953.0
20260504202611 25 0 0.0 0.0 0.00 0.00 0.00 78 953.0
20260504201547 25 0 0.0 0.0 0.00 0.00 0.00 79 953.0
20260504200523 24 0 0.0 0.0 0.00 0.00 0.00 77 953.0
20260504195459 24 0 0.0 0.0 0.00 0.00 0.00 77 953.0
20260504194435 24 0 0.0 0.0 0.00 0.00 0.00 79 953.0
20260504193411 25 0 0.0 0.0 0.00 0.00 0.00 79 953.0
20260504192346 25 0 0.0 0.0 0.00 0.00 0.00 79 953.0
20260504191322 24 0 0.0 0.0 0.00 0.00 0.00 82 953.0
20260504190258 25 0 0.0 0.0 0.00 0.00 0.00 82 953.0
20260504185235 24 0 0.0 0.0 0.00 0.00 0.00 87 954.0
20260504184210 24 0 0.0 0.0 0.00 0.00 0.00 89 954.0
20260504183146 25 0 0.0 0.0 0.00 0.00 0.00 85 953.0
20260504182122 25 0 0.0 0.0 0.00 0.00 0.00 85 954.0
20260504181058 25 0 0.0 0.0 0.00 0.00 0.00 80 954.0
20260504180033 25 0 0.0 0.0 0.00 0.00 0.00 76 954.0
20260504175009 26 0 0.0 0.0 0.00 0.00 0.00 71 954.0
20260504173945 26 0 0.0 0.0 0.00 0.00 0.00 69 954.0
20260504172921 27 0 0.0 0.0 0.00 0.00 0.00 64 954.0
20260504171857 27 0 0.0 0.0 0.00 0.00 0.00 62 954.0
20260504170833 27 0 0.0 0.0 0.00 0.00 0.00 60 954.0
20260504150341 30 0 0.0 0.0 0.00 0.00 0.00 46 952.0
20260504141139 31 0 0.0 0.0 0.00 0.00 0.00 43 951.0
20260504140116 31 0 0.0 0.0 0.00 0.00 0.00 43 951.0
20260504110422 35 0 0.0 0.0 0.00 0.00 0.00 32 948.0
20260504100157 37 0 0.0 0.0 0.00 0.00 0.00 27 948.0
20260504081755 40 0 0.0 0.0 0.00 0.00 0.00 25 949.0
20260504080731 38 0 0.0 0.0 0.00 0.00 0.00 26 949.0